Location: Althorst
(53.6379°N, 10.7715°E)
Time: 11:25:04
(UTC+00:00)

YAOGAN 1 - Pass Details

Date: 10 December 2019
Orbit: 619 x 621 km, 98.0° (Epoch: 19 January)

Event Time Altitude Azimuth Distance (km) Brightness Sun altitude
Rises 17:34:34 0° 165° (SSE) 2,889 5.9 -21.9°
Reaches altitude 10° 17:36:45 10° 166° (SSE) 1,987 5.1 -22.2°
Maximum altitude 17:41:05 84° 255° (WSW) 633 2.5 -22.8°
Drops below altitude 10° 17:45:27 10° 344° (NNW) 2,003 5.3 -23.5°
Sets 17:47:39 0° 345° (NNW) 2,914 6.1 -23.8°
